GS1960 Weather Reports


Display with metric or nautical units.
time (UTC)temp
F
wind
direction
speed
MPH
gust
MPH
rain 1hr
in
rain 24hr
in
rain mn
in
humidity
%
barometer
mb
20260506203034 60 67 2.0 9.0 0.00 1.07 1.07 80 1012.1
20260506201508 60 88 3.0 9.0 0.00 1.07 1.07 81 1012.0
20260506200012 60 84 3.0 6.0 0.00 1.07 1.07 81 1011.9
20260506194519 60 116 2.0 5.0 0.00 1.07 1.07 81 1011.6
20260506193020 60 128 4.0 10.0 0.00 1.07 1.07 82 1011.3
20260506191524 60 80 4.0 12.0 0.00 1.07 1.07 81 1011.3
20260506190007 60 77 5.0 13.0 0.00 1.07 1.07 81 1011.0
20260506184511 60 72 4.0 12.0 0.00 1.07 1.07 81 1010.8
20260506183016 60 55 7.0 14.0 0.00 1.07 1.07 82 1010.6
20260506181522 60 73 5.0 16.0 0.00 1.07 1.07 81 1010.2
20260506180029 60 96 5.0 15.0 0.00 1.07 1.07 81 1010.0
20260506174509 60 91 7.0 16.0 0.00 1.07 1.07 79 1009.8
20260506173019 60 128 6.0 10.0 0.00 1.07 1.07 79 1009.9
20260506171503 60 71 8.0 15.0 0.00 1.07 1.07 80 1009.8
20260506170003 60 132 5.0 14.0 0.00 1.07 1.07 79 1009.7
20260506164504 61 113 7.0 12.0 0.00 1.07 1.07 78 1009.7
20260506163004 61 83 6.0 17.0 0.00 1.07 1.07 78 1009.8
20260506161503 61 122 6.0 12.0 0.00 1.07 1.07 78 1009.9
20260506160004 61 75 4.0 13.0 0.00 1.07 1.07 79 1009.8
20260506154504 62 96 4.0 10.0 0.00 1.07 1.07 78 1009.8
20260506153003 62 79 5.0 17.0 0.00 1.07 1.07 78 1009.8
20260506151503 62 108 3.0 11.0 0.00 1.07 1.07 77 1009.8
20260506150005 62 109 5.0 20.0 0.00 1.07 1.07 76 1009.9
20260506144504 62 56 8.0 17.0 0.00 1.07 1.07 74 1009.7
20260506143004 62 74 7.0 17.0 0.00 1.07 1.07 79 1009.6
20260506141502 62 80 9.0 19.0 0.00 1.07 1.07 78 1009.8
20260506140004 62 87 5.0 13.0 0.00 1.07 1.07 78 1009.8
20260506134504 63 82 7.0 18.0 0.00 1.07 1.07 77 1009.9
20260506130006 65 169 7.0 19.0 0.00 1.07 1.07 73 1010.0
20260506124507 66 79 5.0 14.0 0.00 1.07 1.07 76 1009.8
20260506123005 65 72 8.0 13.0 0.00 1.07 1.07 76 1009.6
20260506120014 65 96 7.0 15.0 0.00 1.07 1.07 79 1009.4
20260506114506 64 82 7.0 18.0 0.00 1.07 1.07 82 1009.2
20260506113010 63 74 8.0 24.0 0.00 1.07 1.07 82 1009.3
20260506111505 63 89 6.0 17.0 0.00 1.07 1.07 82 1009.3
20260506104508 64 97 6.0 15.0 0.00 1.07 1.07 79 1009.3
20260506103009 64 95 9.0 19.0 0.00 1.07 1.07 79 1009.4
20260506101521 64 80 7.0 18.0 0.00 1.07 1.07 80 1009.2
20260506100010 64 71 8.0 17.0 0.00 1.08 1.07 79 1009.1
20260506094522 64 85 6.0 16.0 0.00 1.13 1.07 79 1009.1
20260506093014 64 91 8.0 17.0 0.00 1.15 1.07 79 1009.0
20260506091514 64 64 9.0 14.0 0.00 1.16 1.07 80 1008.9
20260506090014 63 140 6.0 11.0 0.00 1.17 1.07 84 1008.8
20260506081506 61 131 3.0 9.0 0.00 1.17 1.07 87 1008.7
20260506073015 58 260 0.0 1.0 0.14 1.17 1.07 91 1008.5
20260506071509 57 306 0.0 5.0 0.15 1.17 1.07 90 1008.5
20260506061508 55 289 1.0 2.0 0.00 1.03 0.92 92 1007.9
20260506044545 54 297 0.0 2.0 0.01 1.46 0.92 92 1008.9
20260506043014 54 311 0.0 2.0 0.01 1.54 0.92 92 1009.0
20260506041512 54 293 0.0 0.0 0.00 1.67 0.91 92 1009.6
20260506040007 54 293 1.0 2.0 0.00 1.90 0.91 92 1009.6
20260506034530 55 274 0.0 1.0 0.04 2.00 0.91 92 1009.6
20260506033016 55 278 0.0 1.0 0.05 2.07 0.91 92 1009.5
20260506031517 55 282 2.0 6.0 0.06 2.13 0.91 92 1009.6
20260506030018 55 352 0.0 3.0 0.16 2.18 0.91 92 1010.0
20260506024511 56 89 0.0 2.0 0.22 2.17 0.87 92 1010.2
20260506023016 56 84 0.0 1.0 0.32 2.19 0.86 92 1010.4
20260506021518 56 84 0.0 0.0 0.42 2.20 0.85 92 1010.5
20260506020020 56 84 0.0 3.0 0.54 2.13 0.75 91 1011.1
20260506013009 57 264 0.0 3.0 0.54 1.99 0.54 92 1011.2
20260506011517 57 105 0.0 2.0 0.43 1.91 0.43 91 1010.9
20260506010022 57 82 0.0 3.0 0.21 1.73 0.21 91 1011.0
20260506004533 57 263 0.0 0.0 0.00 1.54 0.00 91 1011.1
20260506001513 57 271 0.0 1.0 0.00 1.54 0.00 91 1011.2
20260506000022 57 279 0.0 1.0 0.00 1.54 0.00 91 1011.3
20260505234533 57 302 0.0 2.0 0.00 1.54 0.00 91 1011.7
20260505233025 57 262 0.0 0.0 0.00 1.54 0.00 91 1011.9
20260505231526 57 262 0.0 1.0 0.00 1.54 0.00 91 1012.2
20260505230030 57 262 0.0 1.0 0.00 1.54 0.00 91 1012.1
20260505224520 57 269 1.0 2.0 0.00 1.54 0.00 91 1012.2
20260505223024 57 299 0.0 2.0 0.00 1.54 0.00 91 1012.4
20260505221512 57 286 0.0 1.0 0.00 1.54 0.00 91 1012.5
20260505220023 57 255 0.0 1.0 0.00 1.54 0.00 90 1012.5
20260505214523 57 255 0.0 1.0 0.00 1.54 1.54 90 1012.7
20260505213018 57 274 0.0 0.0 0.00 1.54 1.54 90 1012.9
20260505211504 57 274 0.0 1.0 0.00 1.54 1.54 90 1012.8
20260505210012 58 253 1.0 2.0 0.00 1.54 1.54 89 1013.0
20260505204515 58 293 0.0 2.0 0.00 1.54 1.54 89 1013.2